Fort Wayne, IN

8:06 AM EDT on August 21, 2019 (GMT -0400)
Fort Wayne International

Weather History for KFWA - June, 2019

Change the Weather History Date:

Monday, June 10, 2019

  Actual Average Record
Temperature  
Mean Temperature 62 °F 69 °F  
Max Temperature 71 °F 79 °F 96 °F (1933)
Min Temperature 52 °F 58 °F 42 °F (1913)
Degree Days  
Heating Degree Days 3 1  
Month to date heating degree days 10 19  
Since 1 June heating degree days 10 19  
Since 1 July heating degree days 5857 6091  
Cooling Degree Days 0 5  
Month to date cooling degree days 42 41  
Year to date cooling degree days 110 98  
Since 1 June cooling degree days 42 41  
Growing Degree Days 12 (Base 50)    
Moisture  
Dew Point 59 °F    
Average Humidity 66    
Maximum Humidity 90    
Minimum Humidity 42    
Precipitation  
Precipitation 0.08 in 0.14 in 2.01 in (1909)
Month to date precipitation 0.50 1.53  
Year to date precipitation 18.37 16.33  
Sea Level Pressure  
Sea Level Pressure 29.97 in    
Wind  
Wind Speed 12 mph (WNW)    
Max Wind Speed 26 mph    
Max Gust Speed 39 mph    
Visibility 8 miles    
Events Rain    
T = Trace of Precipitation, MM = Missing Value Source: NWS Daily Summary

Daily Weather History Graph

Daily Weather History Graph

Search for Another Location

Airport or City:

Astronomy

Jun. 10, 2019 Rise Set
Actual Time 6:08 AM EDT 9:12 PM EDT
Civil Twilight 5:35 AM EDT 9:45 PM EDT
Nautical Twilight 4:52 AM EDT 10:28 PM EDT
Astronomical Twilight 4:02 AM EDT 11:18 PM EDT
Moon 1:58 PM EDT (6/10) 2:23 AM EDT (6/10)
Length of Visible Light 16h 10m
Length of Day
15h 03m
First Quarter, 55% of the Moon is Illuminated
Jun 10
First Quarter
Jun 17
Full
Jun 25
Last Quarter
Jul 2
New
Jul 9
First Quarter

Hourly Weather History & Observations

Time (EDT) Temp. Dew Point Humidity Pressure Visibility Wind Dir Wind Speed Gust Speed Precip Events Conditions
12:54 AM 71.1 °F 68.0 °F 90% 29.91 in 4.0 mi Calm Calm - 0.01 in Rain Rain
1:54 AM 70.0 °F 68.0 °F 93% 29.89 in 5.0 mi SSW 4.6 mph - 0.03 in   Overcast
2:43 AM 70.0 °F 68.0 °F 93% 29.89 in 3.0 mi SW 3.5 mph - 0.00 in Rain Light Rain
2:54 AM 70.0 °F 68.0 °F 93% 29.87 in 4.0 mi WSW 4.6 mph - 0.00 in Rain Light Rain
3:54 AM 71.1 °F 68.0 °F 90% 29.86 in 2.5 mi West 8.1 mph - 0.04 in Rain Rain
4:05 AM 70.0 °F 68.0 °F 93% 29.87 in 3.0 mi West 9.2 mph - 0.02 in Rain Light Rain
4:13 AM 70.0 °F 68.0 °F 93% 29.87 in 9.0 mi WNW 10.4 mph - 0.02 in Rain Light Rain
4:49 AM 69.8 °F 66.2 °F 88% 29.87 in 10.0 mi WNW 8.1 mph - 0.02 in   Overcast
4:54 AM 70.0 °F 66.9 °F 90% 29.86 in 10.0 mi WNW 8.1 mph - 0.02 in   Overcast
5:42 AM 70.0 °F 66.9 °F 90% 29.88 in 6.0 mi WNW 9.2 mph - N/A   Overcast
5:54 AM 70.0 °F 66.0 °F 87% 29.86 in 5.0 mi WNW 9.2 mph - N/A   Overcast
5:58 AM 70.0 °F 66.0 °F 87% 29.88 in 5.0 mi WNW 9.2 mph - N/A   Overcast
6:12 AM 69.1 °F 66.0 °F 90% 29.88 in 6.0 mi WNW 10.4 mph - N/A   Overcast
6:32 AM 69.1 °F 66.0 °F 90% 29.90 in 6.0 mi WNW 6.9 mph - N/A   Overcast
6:54 AM 69.1 °F 64.9 °F 87% 29.88 in 8.0 mi NW 9.2 mph - N/A   Mostly Cloudy
7:24 AM 69.1 °F 64.9 °F 87% 29.91 in 8.0 mi NW 6.9 mph - N/A   Overcast
7:44 AM 69.1 °F 64.0 °F 84% 29.92 in 9.0 mi NW 11.5 mph - N/A   Mostly Cloudy
7:54 AM 69.1 °F 63.0 °F 81% 29.91 in 10.0 mi NW 11.5 mph 20.7 mph N/A   Mostly Cloudy
8:16 AM 69.1 °F 63.0 °F 81% 29.93 in 10.0 mi NW 15.0 mph 25.3 mph N/A   Mostly Cloudy
8:43 AM 68.0 °F 63.0 °F 84% 29.94 in 7.0 mi WNW 10.4 mph 20.7 mph N/A   Overcast
8:54 AM 66.9 °F 62.1 °F 84% 29.93 in 8.0 mi NW 15.0 mph 26.5 mph 0.00 in   Overcast
9:54 AM 66.9 °F 61.0 °F 81% 29.94 in 10.0 mi NW 17.3 mph 26.5 mph N/A   Overcast
10:54 AM 64.9 °F 59.0 °F 81% 29.96 in 10.0 mi WNW 16.1 mph 29.9 mph N/A   Overcast
11:54 AM 64.0 °F 57.0 °F 78% 29.98 in 10.0 mi NW 18.4 mph 25.3 mph N/A   Overcast
12:34 PM 64.0 °F 55.9 °F 75% 30.01 in 10.0 mi NW 18.4 mph 31.1 mph N/A   Overcast
12:54 PM 64.0 °F 55.9 °F 75% 30.01 in 10.0 mi NW 20.7 mph 32.2 mph N/A   Overcast
1:54 PM 62.1 °F 55.0 °F 78% 30.02 in 10.0 mi WNW 17.3 mph 34.5 mph N/A   Overcast
2:54 PM 66.9 °F 55.0 °F 66% 30.03 in 10.0 mi NW 20.7 mph 29.9 mph N/A   Mostly Cloudy
3:34 PM 66.9 °F 53.1 °F 61% 30.05 in 10.0 mi WNW 18.4 mph 35.7 mph N/A   Mostly Cloudy
3:54 PM 66.9 °F 53.1 °F 61% 30.04 in 10.0 mi NW 17.3 mph 31.1 mph N/A   Scattered Clouds
4:54 PM 69.1 °F 51.1 °F 53% 30.05 in 10.0 mi WNW 16.1 mph 32.2 mph N/A   Partly Cloudy
5:54 PM 69.1 °F 46.9 °F 45% 30.07 in 10.0 mi NW 19.6 mph 36.8 mph N/A   Partly Cloudy
6:54 PM 68.0 °F 46.9 °F 47% 30.08 in 10.0 mi NW 16.1 mph 26.5 mph N/A   Partly Cloudy
7:54 PM 68.0 °F 45.0 °F 43% 30.11 in 10.0 mi NW 15.0 mph 29.9 mph N/A   Clear
8:54 PM 64.9 °F 46.0 °F 50% 30.13 in 10.0 mi NW 5.8 mph - N/A   Clear
9:54 PM 62.1 °F 45.0 °F 53% 30.15 in 10.0 mi NW 4.6 mph - N/A   Clear
10:54 PM 55.9 °F 46.9 °F 72% 30.17 in 10.0 mi West 4.6 mph - N/A   Clear
11:54 PM 54.0 °F 46.9 °F 77% 30.18 in 10.0 mi WSW 4.6 mph - N/A   Clear